Language: 


Des rapports , des résumés tant et plus, au choix de chacun....


Données statistiques de la station
Quotidien Rapport Novembre 11, 2017 Unités:  Anglais    Métrique   les deux
« Précédent Jour
Suivant Jour »
Quotidien Hebdomadaire Mensuel Annuel Actuel
  Haut: Bas: Moyen:
Température: 53.8 °F 42.1 °F 47.3 °F
Pt de rosée: 53.6 °F 39.2 °F 46.6 °F
Humidité: 98 % 88 % 95 %
Vitesse du vent: 8.1 mph 0 mph 1.1 mph
Rafales: 8.1 mph - -
Vent:- - WSW
Pression: 30.1 in 29.8 in -
Précipitation: 0.18 in    
Historical Graphs
 
 
Données statistiques pour Novembre 11, 2017
Heure Température Point de rosée Pression Vent Vitesse du vent Refales Humidité Pluie (taux horaire)
00:01 42.3 °F 39.2 °F 30.1 in West 4.7 mph 4.7 mph 88 % 0 in
00:06 42.3 °F 39.2 °F 30.1 in West 4.7 mph 4.7 mph 89 % 0 in
00:12 42.3 °F 39.2 °F 30.1 in West 4.7 mph 4.7 mph 89 % 0 in
00:17 42.3 °F 39.2 °F 30.1 in West 4.7 mph 4.7 mph 89 % 0 in
00:22 42.3 °F 39.2 °F 30.1 in West 4.7 mph 4.7 mph 89 % 0 in
00:27 42.4 °F 41 °F 30.1 in Calm     89 % 0 in
00:32 42.6 °F 41 °F 30.1 in Calm     89 % 0 in
00:37 42.6 °F 41 °F 30.1 in Calm     89 % 0 in
00:42 42.6 °F 41 °F 30.1 in Calm     89 % 0 in
00:47 42.6 °F 41 °F 30.1 in Calm     89 % 0 in
00:52 42.4 °F 39.2 °F 30.1 in Calm     88 % 0 in
00:57 42.3 °F 39.2 °F 30 in Calm     88 % 0 in
01:02 42.1 °F 39.2 °F 30 in Calm     88 % 0 in
01:07 42.1 °F 39.2 °F 30 in Calm     88 % 0 in
01:12 42.1 °F 39.2 °F 30 in Calm     88 % 0 in
01:17 42.1 °F 39.2 °F 30 in Calm     89 % 0 in
01:23 42.1 °F 39.2 °F 30 in Calm     89 % 0 in
01:28 42.1 °F 39.2 °F 30 in Calm   2.9 mph 89 % 0 in
01:32 42.1 °F 39.2 °F 30 in Calm   2.9 mph 90 % 0 in
01:37 42.3 °F 39.2 °F 30 in Calm     90 % 0 in
01:43 42.3 °F 39.2 °F 30 in Calm     90 % 0 in
01:48 42.3 °F 39.2 °F 30 in Calm     90 % 0 in
01:53 42.3 °F 39.2 °F 30 in Calm     90 % 0 in
01:58 42.1 °F 39.2 °F 30 in Calm     90 % 0 in
02:03 42.1 °F 39.2 °F 30 in Calm     90 % 0 in
02:08 42.1 °F 39.2 °F 30 in Calm     90 % 0 in
02:13 42.3 °F 41 °F 30 in Calm     91 % 0 in
02:18 42.4 °F 41 °F 30 in Calm     91 % 0 in
02:23 42.8 °F 41 °F 30 in Calm     91 % 0 in
02:28 43 °F 41 °F 30 in Calm     92 % 0 in
02:33 43 °F 41 °F 30 in Calm     92 % 0 in
02:38 43.3 °F 41 °F 30 in Calm     92 % 0 in
02:43 43.3 °F 41 °F 30 in Calm     92 % 0 in
02:48 43.3 °F 41 °F 30 in Calm     92 % 0 in
02:53 43.5 °F 41 °F 30 in Calm     92 % 0 in
02:58 43.7 °F 42.8 °F 30 in Calm     92 % 0 in
03:03 43.7 °F 42.8 °F 30 in Calm     92 % 0 in
03:08 43.9 °F 42.8 °F 30 in Calm     92 % 0 in
03:13 44.1 °F 42.8 °F 30 in Calm     91 % 0 in
03:18 44.1 °F 42.8 °F 30 in Calm     91 % 0 in
03:23 44.1 °F 42.8 °F 30 in Calm     91 % 0 in
03:28 44.2 °F 42.8 °F 29.9 in Calm     91 % 0 in
03:33 44.4 °F 42.8 °F 29.9 in Calm     91 % 0 in
03:43 44.6 °F 42.8 °F 30 in South 6 mph 6 mph 90 % 0 in
03:48 44.8 °F 42.8 °F 30 in South 6 mph 6 mph 90 % 0 in
03:53 44.8 °F 42.8 °F 30 in South 6 mph 6 mph 90 % 0 in
03:58 44.8 °F 42.8 °F 30 in South 6 mph 6 mph 89 % 0 in
04:03 44.8 °F 42.8 °F 30 in Calm     89 % 0 in
04:08 44.8 °F 42.8 °F 30 in Calm     90 % 0 in
04:13 44.8 °F 42.8 °F 29.9 in SSW 5.6 mph 5.6 mph 90 % 0 in
04:19 44.8 °F 42.8 °F 29.9 in SSW 5.6 mph 5.6 mph 90 % 0 in
04:20 44.8 °F 42.8 °F 29.9 in SSW 3.6 mph 5.6 mph 90 % 0 in
04:25 44.8 °F 42.8 °F 29.9 in SSW 3.4 mph 5.6 mph 90 % 0 in
04:26 44.8 °F 42.8 °F 29.9 in Calm   5.6 mph 90 % 0 in
04:31 44.8 °F 42.8 °F 29.9 in Calm   4.9 mph 91 % 0 in
04:36 44.6 °F 42.8 °F 29.9 in SSW 5.6 mph 5.6 mph 91 % 0 in
04:41 44.6 °F 42.8 °F 29.9 in SW 3.1 mph 5.6 mph 92 % 0 in
04:46 44.6 °F 42.8 °F 29.9 in Calm   3.6 mph 92 % 0 in
04:51 44.4 °F 42.8 °F 29.9 in Calm   3.1 mph 93 % 0 in
04:56 44.4 °F 42.8 °F 29.9 in Calm     94 % 0.01 in
05:01 44.2 °F 42.8 °F 29.9 in Calm     94 % 0.01 in
05:06 44.2 °F 42.8 °F 29.9 in Calm     95 % 0.01 in
05:11 44.1 °F 42.8 °F 29.9 in SSW 0.9 mph 0.9 mph 95 % 0.02 in
05:16 44.1 °F 42.8 °F 29.9 in SSW 3.8 mph 3.8 mph 96 % 0.02 in
05:21 44.1 °F 42.8 °F 29.9 in SSW 2.2 mph 3.8 mph 96 % 0.02 in
05:26 44.1 °F 42.8 °F 29.9 in SSW 4 mph 4 mph 97 % 0.03 in
05:31 43.9 °F 42.8 °F 29.9 in South 4.3 mph 4.3 mph 97 % 0.03 in
05:36 43.9 °F 42.8 °F 29.9 in SSW 3.4 mph 4.3 mph 97 % 0.05 in
05:41 43.9 °F 42.8 °F 29.9 in Calm   4.3 mph 97 % 0.05 in
05:46 43.9 °F 44.6 °F 29.9 in Calm   3.4 mph 98 % 0.06 in
05:51 43.9 °F 44.6 °F 29.9 in Calm   3.4 mph 98 % 0.06 in
05:56 43.9 °F 44.6 °F 29.9 in Calm     98 % 0.06 in
06:01 44.1 °F 44.6 °F 29.9 in Calm   5.6 mph 98 % 0.06 in
06:06 43.9 °F 44.6 °F 29.9 in SSW 2.7 mph 5.6 mph 98 % 0.07 in
06:11 43.9 °F 44.6 °F 29.9 in Calm   2.7 mph 98 % 0.06 in
06:16 44.1 °F 44.6 °F 29.9 in Calm   2.7 mph 98 % 0.06 in
06:21 44.1 °F 44.6 °F 29.9 in Calm     98 % 0.07 in
06:26 44.1 °F 44.6 °F 29.9 in Calm     98 % 0.06 in
06:31 44.1 °F 44.6 °F 29.9 in Calm     98 % 0.07 in
06:33 44.1 °F 44.6 °F 29.9 in SSW 2.2 mph 2.2 mph 98 % 0.07 in
06:38 44.1 °F 44.6 °F 29.9 in Calm   2.2 mph 98 % 0.06 in
06:43 44.1 °F 44.6 °F 29.8 in Calm   2.2 mph 98 % 0.07 in
06:48 44.1 °F 44.6 °F 29.8 in Calm     98 % 0.06 in
06:53 44.2 °F 44.6 °F 29.8 in Calm     98 % 0.06 in
06:58 44.2 °F 44.6 °F 29.9 in South 3.4 mph 3.4 mph 98 % 0.06 in
07:03 44.2 °F 44.6 °F 29.9 in Calm   3.4 mph 98 % 0.06 in
07:09 44.4 °F 44.6 °F 29.9 in Calm   3.4 mph 98 % 0.06 in
07:14 44.4 °F 44.6 °F 29.8 in SSE 1.6 mph 1.6 mph 98 % 0.06 in
07:19 44.6 °F 44.6 °F 29.8 in SSE 1.3 mph 1.6 mph 98 % 0.05 in
07:24 44.6 °F 44.6 °F 29.8 in Calm   1.6 mph 98 % 0.05 in
07:29 44.6 °F 44.6 °F 29.8 in ESE 1.1 mph 1.3 mph 98 % 0.05 in
07:34 44.6 °F 44.6 °F 29.8 in ESE 1.1 mph 1.1 mph 98 % 0.05 in
07:39 44.8 °F 44.6 °F 29.8 in Calm   1.1 mph 98 % 0.03 in
07:44 45 °F 44.6 °F 29.8 in Calm   3.1 mph 98 % 0.03 in
07:49 45 °F 44.6 °F 29.8 in Calm   3.1 mph 98 % 0.03 in
07:54 45.1 °F 44.6 °F 29.8 in Calm   2.5 mph 98 % 0.02 in
07:59 45.1 °F 44.6 °F 29.8 in Calm   2.5 mph 98 % 0.04 in
08:04 45.1 °F 44.6 °F 29.8 in Calm     98 % 0.04 in
08:09 45.3 °F 44.6 °F 29.8 in Calm     98 % 0.03 in
08:14 45.3 °F 44.6 °F 29.8 in SSE 3.1 mph 3.1 mph 98 % 0.03 in
08:19 45.5 °F 46.4 °F 29.8 in Calm   3.1 mph 98 % 0.03 in
08:22 45.5 °F 46.4 °F 29.8 in Calm   3.1 mph 98 % 0.03 in
08:27 45.5 °F 46.4 °F 29.8 in Calm     98 % 0.03 in
08:32 45.7 °F 46.4 °F 29.8 in South 2.9 mph 2.9 mph 98 % 0.03 in
08:37 45.9 °F 46.4 °F 29.8 in Calm   2.9 mph 98 % 0.01 in
08:42 46 °F 46.4 °F 29.8 in Calm   2.9 mph 98 % 0.01 in
08:47 46 °F 46.4 °F 29.8 in Calm     98 % 0.01 in
08:52 46.2 °F 46.4 °F 29.8 in Calm     98 % 0.01 in
08:57 46.4 °F 46.4 °F 29.8 in Calm     98 % 0.01 in
09:02 46.4 °F 46.4 °F 29.8 in Calm     98 % 0 in
09:07 46.6 °F 46.4 °F 29.8 in Calm     98 % 0 in
09:12 46.8 °F 46.4 °F 29.8 in Calm     98 % 0 in
09:17 46.9 °F 48.2 °F 29.8 in Calm     98 % 0 in
09:22 46.9 °F 48.2 °F 29.8 in Calm     98 % 0 in
09:27 47.1 °F 48.2 °F 29.8 in Calm     98 % 0 in
09:33 47.3 °F 48.2 °F 29.8 in Calm     98 % 0 in
09:38 47.5 °F 48.2 °F 29.8 in Calm     98 % 0 in
09:43 47.5 °F 48.2 °F 29.8 in Calm     98 % 0 in
09:48 47.7 °F 48.2 °F 29.8 in Calm     98 % 0 in
09:53 48 °F 48.2 °F 29.8 in Calm     98 % 0 in
09:58 48.2 °F 48.2 °F 29.8 in Calm     98 % 0 in
10:03 48.4 °F 48.2 °F 29.8 in Calm     98 % 0 in
10:08 48.7 °F 48.2 °F 29.8 in Calm     98 % 0 in
10:13 49.1 °F 50 °F 29.8 in Calm     98 % 0 in
10:18 49.3 °F 50 °F 29.8 in WSW 2.9 mph 2.9 mph 98 % 0 in
10:23 49.3 °F 50 °F 29.8 in Calm   3.4 mph 98 % 0 in
10:28 49.1 °F 50 °F 29.8 in Calm   3.4 mph 98 % 0 in
10:33 49.1 °F 50 °F 29.8 in Calm     98 % 0 in
10:38 49.1 °F 50 °F 29.8 in Calm     98 % 0 in
10:43 49.3 °F 50 °F 29.8 in Calm     98 % 0 in
10:48 49.5 °F 50 °F 29.8 in Calm     98 % 0 in
10:53 49.8 °F 50 °F 29.8 in West 4 mph 4 mph 98 % 0 in
10:55 49.8 °F 50 °F 29.8 in West 2.9 mph 4 mph 98 % 0 in
11:00 50.2 °F 50 °F 29.8 in West 2.9 mph 4 mph 98 % 0 in
11:05 50.4 °F 50 °F 29.8 in West 4 mph 4 mph 98 % 0 in
11:10 50.4 °F 50 °F 29.8 in West 4 mph 4 mph 98 % 0 in
11:15 50.5 °F 50 °F 29.8 in Calm   4 mph 98 % 0 in
11:20 50.9 °F 51.8 °F 29.8 in WSW 4.3 mph 4.3 mph 98 % 0.01 in
11:25 50.9 °F 51.8 °F 29.8 in West 4 mph 4.3 mph 98 % 0.01 in
11:30 50.9 °F 51.8 °F 29.8 in Calm   4 mph 98 % 0.01 in
11:35 51.1 °F 51.8 °F 29.8 in West 3.4 mph 4.7 mph 98 % 0.01 in
11:40 51.3 °F 51.8 °F 29.8 in WNW 2.9 mph 4.7 mph 98 % 0.01 in
11:45 51.4 °F 51.8 °F 29.8 in West 4.3 mph 4.3 mph 98 % 0.01 in
11:50 51.4 °F 51.8 °F 29.8 in West 6.3 mph 6.3 mph 98 % 0.01 in
11:55 51.3 °F 51.8 °F 29.8 in West 3.6 mph 6.3 mph 98 % 0.01 in
12:00 51.4 °F 51.8 °F 29.8 in West 5.6 mph 6.3 mph 98 % 0.01 in
12:05 51.4 °F 51.8 °F 29.8 in Calm   5.6 mph 98 % 0.01 in
12:10 51.8 °F 51.8 °F 29.8 in West 2.9 mph 2.9 mph 98 % 0.01 in
12:15 52 °F 51.8 °F 29.8 in West 2.7 mph 3.1 mph 98 % 0.01 in
12:16 52 °F 51.8 °F 29.8 in NW 2 mph 3.1 mph 98 % 0.01 in
12:21 52 °F 51.8 °F 29.8 in WNW 2.9 mph 3.1 mph 98 % 0 in
12:26 52 °F 51.8 °F 29.8 in West 2 mph 2.9 mph 98 % 0 in
12:31 52.2 °F 51.8 °F 29.8 in Calm   2.9 mph 98 % 0 in
12:36 52.2 °F 51.8 °F 29.8 in WNW 2.5 mph 2.9 mph 98 % 0 in
12:41 52.3 °F 51.8 °F 29.8 in Calm   5.4 mph 98 % 0 in
12:46 52.2 °F 51.8 °F 29.8 in NE 3.8 mph 5.8 mph 98 % 0 in
12:51 52.2 °F 51.8 °F 29.8 in Calm   5.8 mph 98 % 0 in
12:56 52.3 °F 51.8 °F 29.8 in Calm   4.3 mph 98 % 0 in
13:01 52.5 °F 51.8 °F 29.8 in Calm   4.3 mph 98 % 0 in
13:06 52.7 °F 53.6 °F 29.8 in NNW 3.1 mph 4 mph 98 % 0 in
13:11 53.1 °F 53.6 °F 29.8 in North 0.9 mph 4 mph 98 % 0 in
13:16 53.1 °F 53.6 °F 29.8 in NNW 4.3 mph 5.6 mph 98 % 0 in
13:21 52.7 °F 53.6 °F 29.8 in NNW 6.5 mph 6.5 mph 98 % 0 in
13:27 52.9 °F 53.6 °F 29.8 in Calm   6.5 mph 98 % 0 in
13:32 53.1 °F 53.6 °F 29.8 in North 3.4 mph 5.8 mph 98 % 0 in
13:33 53.1 °F 53.6 °F 29.8 in Calm   5.8 mph 98 % 0 in
13:38 53.8 °F 53.6 °F 29.8 in Calm   5.8 mph 98 % 0 in
13:43 53.8 °F 53.6 °F 29.8 in West 3.6 mph 3.6 mph 98 % 0 in
13:48 53.4 °F 53.6 °F 29.8 in Calm   3.6 mph 98 % 0 in
13:53 53.2 °F 51.8 °F 29.8 in North 1.3 mph 3.6 mph 97 % 0 in
13:58 53.2 °F 51.8 °F 29.8 in NNW 6.5 mph 6.5 mph 97 % 0 in
14:03 52.9 °F 51.8 °F 29.8 in NNW 4.3 mph 6.5 mph 96 % 0 in
14:08 52.7 °F 51.8 °F 29.8 in NNW 8.1 mph 8.1 mph 96 % 0 in
14:13 52.5 °F 51.8 °F 29.8 in NNE 7.6 mph 8.1 mph 96 % 0 in
14:18 52.2 °F 51.8 °F 29.8 in NNW 2.2 mph 8.1 mph 95 % 0 in
14:23 51.8 °F 50 °F 29.8 in North 3.4 mph 7.6 mph 95 % 0 in
14:28 51.6 °F 50 °F 29.8 in WNW 2.7 mph 4.9 mph 95 % 0 in
14:33 51.8 °F 50 °F 29.8 in North 5.6 mph 5.6 mph 95 % 0 in
14:39 51.8 °F 50 °F 29.8 in Calm   5.6 mph 95 % 0 in
14:44 51.6 °F 51.8 °F 29.8 in North 2.7 mph 5.6 mph 96 % 0 in
14:49 51.6 °F 50 °F 29.8 in NNW 5.8 mph 6 mph 95 % 0 in
14:54 51.6 °F 50 °F 29.8 in NNW 2.9 mph 6 mph 95 % 0 in
14:59 51.6 °F 50 °F 29.8 in NW 6.3 mph 6.5 mph 95 % 0 in
15:04 51.6 °F 50 °F 29.8 in Calm   6.5 mph 95 % 0 in
15:09 51.6 °F 50 °F 29.8 in North 4.7 mph 6.3 mph 95 % 0 in
15:14 51.6 °F 50 °F 29.8 in NNE 4.5 mph 6.3 mph 94 % 0 in
15:19 51.4 °F 50 °F 29.8 in North 4 mph 7.4 mph 94 % 0 in
15:24 51.4 °F 50 °F 29.8 in North 6 mph 7.4 mph 94 % 0 in
15:29 51.3 °F 50 °F 29.8 in NNE 3.4 mph 6 mph 94 % 0 in
15:34 51.1 °F 50 °F 29.8 in NNE 2.9 mph 6 mph 94 % 0 in
15:39 51.1 °F 50 °F 29.8 in North 1.3 mph 4.3 mph 94 % 0 in
15:44 51.1 °F 50 °F 29.8 in Calm   4.3 mph 94 % 0 in
15:49 51.1 °F 50 °F 29.8 in North 3.6 mph 4 mph 95 % 0 in
15:54 51.1 °F 50 °F 29.8 in Calm   4 mph 94 % 0 in
15:59 51.1 °F 50 °F 29.8 in Calm   4 mph 94 % 0 in
16:04 50.9 °F 50 °F 29.8 in Calm     94 % 0 in
16:09 50.7 °F 48.2 °F 29.8 in Calm     94 % 0 in
16:14 50.5 °F 48.2 °F 29.8 in North 0.9 mph 2.5 mph 94 % 0 in
16:20 50.5 °F 48.2 °F 29.8 in Calm   2.5 mph 94 % 0 in
16:25 50.4 °F 50 °F 29.8 in North 1.6 mph 1.6 mph 95 % 0 in
16:30 50.4 °F 50 °F 29.8 in Calm   1.6 mph 95 % 0 in
16:35 50.2 °F 48.2 °F 29.8 in Calm   1.6 mph 95 % 0 in
16:40 50.2 °F 48.2 °F 29.8 in Calm     95 % 0 in
16:45 50.2 °F 48.2 °F 29.8 in Calm     95 % 0 in
16:50 50.2 °F 48.2 °F 29.8 in Calm     95 % 0 in
16:55 50 °F 48.2 °F 29.8 in Calm     95 % 0 in
17:00 50 °F 48.2 °F 29.8 in Calm     95 % 0 in
17:05 50 °F 48.2 °F 29.8 in Calm     95 % 0 in
17:10 49.8 °F 50 °F 29.8 in Calm     96 % 0 in
17:15 49.8 °F 50 °F 29.8 in Calm   2.5 mph 96 % 0 in
17:20 49.8 °F 50 °F 29.8 in North 1.1 mph 2.5 mph 96 % 0 in
17:25 49.8 °F 50 °F 29.8 in NNW 3.1 mph 3.1 mph 96 % 0 in
17:30 49.6 °F 48.2 °F 29.8 in North 4 mph 5.8 mph 95 % 0 in
17:35 49.6 °F 48.2 °F 29.8 in North 4 mph 5.8 mph 95 % 0 in
17:40 49.5 °F 48.2 °F 29.8 in North 3.8 mph 5.8 mph 95 % 0 in
17:45 49.5 °F 48.2 °F 29.8 in Calm   4.3 mph 95 % 0 in
17:50 49.3 °F 48.2 °F 29.8 in NNE 3.1 mph 4.3 mph 94 % 0 in
17:55 49.1 °F 48.2 °F 29.8 in Calm   4 mph 94 % 0 in
18:00 48.9 °F 48.2 °F 29.8 in Calm   4 mph 94 % 0 in
18:05 48.9 °F 48.2 °F 29.8 in Calm   2.9 mph 94 % 0 in
18:10 48.7 °F 48.2 °F 29.8 in Calm   2 mph 94 % 0 in
18:15 48.7 °F 48.2 °F 29.8 in Calm     94 % 0 in
18:20 48.7 °F 48.2 °F 29.8 in Calm     94 % 0 in
18:25 48.6 °F 48.2 °F 29.8 in Calm   2 mph 94 % 0 in
18:31 48.6 °F 48.2 °F 29.8 in Calm   2 mph 94 % 0 in
18:36 48.6 °F 48.2 °F 29.8 in Calm     94 % 0 in
18:41 48.6 °F 48.2 °F 29.8 in Calm     94 % 0 in
18:46 48.6 °F 48.2 °F 29.8 in Calm     94 % 0 in
18:51 48.6 °F 48.2 °F 29.8 in Calm     94 % 0 in
18:56 48.4 °F 46.4 °F 29.8 in Calm     94 % 0 in
19:01 48.4 °F 46.4 °F 29.8 in Calm     94 % 0 in
19:06 48.4 °F 48.2 °F 29.8 in Calm     95 % 0 in
19:11 48.2 °F 48.2 °F 29.9 in Calm     95 % 0 in
19:16 48.2 °F 48.2 °F 29.9 in Calm     95 % 0 in
19:21 48.2 °F 48.2 °F 29.9 in Calm     95 % 0 in
19:27 48.2 °F 48.2 °F 29.9 in Calm     95 % 0 in
19:32 48 °F 48.2 °F 29.9 in Calm     95 % 0 in
19:37 48 °F 48.2 °F 29.9 in Calm     95 % 0 in
19:42 48 °F 48.2 °F 29.9 in Calm     95 % 0 in
19:47 48 °F 48.2 °F 29.9 in Calm     96 % 0 in
19:52 48 °F 48.2 °F 29.9 in Calm     96 % 0 in
19:57 48 °F 48.2 °F 29.9 in Calm     96 % 0 in
20:02 48 °F 48.2 °F 29.9 in Calm   1.6 mph 96 % 0 in
20:07 48 °F 48.2 °F 29.9 in Calm   1.6 mph 96 % 0 in
20:12 48 °F 48.2 °F 29.9 in Calm     96 % 0 in
20:17 47.8 °F 48.2 °F 29.9 in Calm     96 % 0 in
20:22 47.8 °F 48.2 °F 29.9 in Calm     96 % 0 in
20:27 47.8 °F 48.2 °F 29.9 in Calm     96 % 0 in
20:32 47.8 °F 48.2 °F 29.9 in Calm     96 % 0 in
20:37 47.8 °F 48.2 °F 29.9 in Calm     96 % 0 in
20:42 47.8 °F 48.2 °F 29.9 in Calm     96 % 0 in
20:47 47.7 °F 48.2 °F 29.9 in Calm     96 % 0 in
20:52 47.7 °F 48.2 °F 29.9 in Calm     96 % 0 in
20:57 47.7 °F 48.2 °F 29.9 in Calm     96 % 0 in
21:02 47.5 °F 48.2 °F 29.9 in Calm     97 % 0 in
21:07 47.5 °F 48.2 °F 29.9 in Calm     97 % 0 in
21:12 47.5 °F 48.2 °F 29.9 in Calm     97 % 0 in
21:17 47.5 °F 48.2 °F 29.9 in Calm     97 % 0 in
21:22 47.5 °F 48.2 °F 29.9 in Calm     97 % 0 in
21:27 47.3 °F 48.2 °F 29.9 in Calm     97 % 0 in
21:32 47.3 °F 48.2 °F 29.9 in Calm     97 % 0 in
21:37 47.3 °F 48.2 °F 29.9 in Calm     97 % 0 in
21:42 47.3 °F 48.2 °F 29.9 in Calm     97 % 0 in
21:47 47.1 °F 46.4 °F 29.9 in Calm     97 % 0 in
21:52 46.8 °F 46.4 °F 29.9 in Calm     97 % 0 in
21:57 46.8 °F 46.4 °F 29.8 in Calm     97 % 0 in
22:02 46.8 °F 46.4 °F 29.8 in Calm     97 % 0 in
22:07 46.6 °F 46.4 °F 29.8 in Calm     98 % 0 in
22:12 46.6 °F 46.4 °F 29.9 in Calm     98 % 0 in
22:18 46.4 °F 46.4 °F 29.9 in Calm     98 % 0 in
22:23 46.4 °F 46.4 °F 29.9 in Calm     98 % 0 in
22:28 46.2 °F 46.4 °F 29.9 in Calm     98 % 0 in
22:33 46.2 °F 46.4 °F 29.9 in Calm     98 % 0 in
22:38 46 °F 46.4 °F 29.9 in Calm     98 % 0 in
22:43 46 °F 46.4 °F 29.9 in Calm     98 % 0 in
22:48 45.9 °F 46.4 °F 29.9 in Calm     98 % 0 in
22:53 45.9 °F 46.4 °F 29.9 in Calm     98 % 0 in
22:58 45.5 °F 46.4 °F 29.9 in Calm     98 % 0 in
23:03 45.3 °F 44.6 °F 29.9 in Calm     98 % 0 in
23:08 45.3 °F 44.6 °F 29.9 in Calm     98 % 0 in
23:13 45.3 °F 44.6 °F 29.9 in Calm     98 % 0 in
23:18 45.3 °F 44.6 °F 29.9 in Calm     98 % 0 in
23:23 45.3 °F 44.6 °F 29.9 in Calm     98 % 0 in
23:28 45.3 °F 44.6 °F 29.9 in Calm     98 % 0 in
23:33 45.5 °F 46.4 °F 29.9 in Calm     98 % 0 in
23:38 45.5 °F 46.4 °F 29.9 in Calm     98 % 0 in
23:43 45.5 °F 46.4 °F 29.9 in Calm     98 % 0 in
23:48 45.3 °F 44.6 °F 29.9 in Calm     98 % 0 in
23:53 45.1 °F 44.6 °F 29.9 in Calm     98 % 0 in
23:58 45 °F 44.6 °F 29.9 in Calm     98 % 0 in
Le Gheer Warneton
Courtoisie de Weather Underground - 2.5 mb

Mise a jour : 17-12-17 08:59:12
Généré par Cumulus 1.9.4 (1099)